[[[{"header":{"parameterUnit":"kt","parameterCategory":2,"dx":1,"dy":1,"la1":30.253999710083008,"la2":30.299108505249023,"lo1":-89.0895004272461,"lo2":-89.04439544677734,"nx":28,"ny":28,"refTime":"2022-09-18T21:00:00:Z","depth":"0","parameterNumber":2,"parameterNumberName":"U-component_of_CURRENTS"},"data":[0.6579,0.6516,0.6533,0.6438,0.6463,0.6371,0.6376,0.6301,0.6338,0.6186,0.6103,0.6159,0.5942,0.544,0.4809,0.4682,0.4292,0.4105,0.4254,0.4815,0.4921,0.5022,0.4779,0.4014,0.4013,0.2898,0.2889,0.2882,0.6692,0.6709,0.6716,0.6724,0.6704,0.6809,0.6858,0.6795,0.6787,0.6919,0.701,0.6922,0.6735,0.6612,0.6225,0.591,0.5668,0.565,0.5144,0.5106,0.6125,0.5902,0.5362,0.5362,0.5363,0.5363,0.5364,0.5364,0.6902,0.6878,0.6928,0.6936,0.6974,0.7014,0.6987,0.7087,0.714,0.718,0.7424,0.7487,0.7477,0.7695,0.7639,0.7126,0.7376,0.6853,0.6853,0.67,0.6358,0.7499,0.7382,0.7388,0.7393,0.7397,0.7401,0,0.7048,0.7087,0.7119,0.7139,0.7161,0.7203,0.7261,0.7285,0.7442,0.751,0.7644,0.7777,0.7982,0.795,0.8138,0.8172,0.7717,0.8075,0.775,0.6877,0.6546,0.6398,0.7658,0.7566,0.7574,0.7579,0.7583,0.7585,0.721,0.7216,0.7297,0.7305,0.7338,0.7377,0.741,0.7544,0.7582,0.7746,0.7753,0.7925,0.8049,0.8293,0.8368,0.8566,0.8293,0.8228,0.8105,0.7722,0.7677,0.7465,0.7322,0.7661,0.7652,0.7644,0.7637,0,0.7289,0.7365,0.7384,0.7485,0.7508,0.7513,0.7605,0.7641,0.7757,0.7801,0.7836,0.7998,0.8147,0.8308,0.8489,0.8525,0.8374,0.8684,0.8221,0.818,0.7813,0.7758,0.7404,0.722,0.8722,0.8721,0.8719,0,0.7407,0.7421,0.752,0.7535,0.7555,0.7662,0.7692,0.7766,0.7864,0.7896,0.8035,0.8073,0.8211,0.8318,0.8436,0.8531,0.8593,0.8567,0.8586,0.8188,0.8148,0.7793,0.7711,0.8674,0.8672,0.8671,0.8669,0,0.7451,0.7541,0.7561,0.7595,0.7708,0.7729,0.7783,0.7883,0.7918,0.8025,0.8064,0.8164,0.8189,0.831,0.841,0.8395,0.8555,0.8549,0.8555,0.8551,0.8155,0.8111,0.7806,0.8667,0.8667,0.8667,0.8666,0,0.754,0.7584,0.7621,0.7711,0.7728,0.7768,0.7845,0.7903,0.7999,0.8043,0.8099,0.8148,0.8209,0.8209,0.8341,0.8292,0.8374,0.8418,0.8426,0.8288,0.828,0.8011,0.8034,0.7662,0.8526,0.8525,0.8523,0,0.7574,0.7624,0.7671,0.7724,0.7754,0.7825,0.7882,0.7945,0.8002,0.8051,0.8094,0.8141,0.8149,0.8165,0.8208,0.8256,0.8324,0.8242,0.8348,0.8351,0.8253,0.8359,0.7908,0.8026,0.85,0.8502,0.8504,0,0.7588,0.7673,0.7676,0.7695,0.778,0.7816,0.788,0.7936,0.7958,0.8024,0.8047,0.812,0.8125,0.8128,0.8134,0.8165,0.829,0.816,0.816,0.8233,0.8437,0.8341,0.8348,0.8295,0.8297,0.8298,0.8486,0,0.7634,0.7669,0.7692,0.7722,0.7771,0.7814,0.7867,0.7907,0.7923,0.7946,0.8008,0.8031,0.8046,0.8079,0.8066,0.813,0.8141,0.8116,0.8046,0.8124,0.8199,0.8214,0.8006,0.8004,0.8002,0.8001,0,0,0.7621,0.7639,0.7668,0.7701,0.7732,0.7769,0.7793,0.7828,0.7862,0.787,0.7884,0.7925,0.7932,0.797,0.8011,0.8016,0.8048,0.7964,0.8084,0.8094,0.8103,0.8178,0.8194,0.7998,0.7997,0.7996,0.7996,0,0.7607,0.7641,0.7645,0.7688,0.7737,0.7756,0.7771,0.7801,0.7817,0.7852,0.7843,0.7879,0.7894,0.7909,0.7914,0.7989,0.7978,0.8008,0.8016,0.8069,0.8081,0.8091,0.8168,0.8184,0.7992,0.7992,0.7992,0,0.7581,0.7602,0.7605,0.7666,0.7683,0.772,0.7707,0.7755,0.778,0.7741,0.7764,0.7785,0.7781,0.783,0.7845,0.7802,0.7897,0.7847,0.7856,0.7819,0.7868,0.7883,0.7895,0.773,0.7729,0.7729,0,0,0.7567,0.7578,0.7621,0.7663,0.7683,0.7691,0.7714,0.7728,0.7743,0.7748,0.7741,0.7735,0.7762,0.776,0.778,0.7788,0.7787,0.7818,0.783,0.7841,0.781,0.7862,0.7875,0.7727,0.7726,0.7726,0,0,0.7562,0.7581,0.7575,0.7629,0.7672,0.7696,0.7728,0.772,0.7731,0.7721,0.7698,0.7699,0.7752,0.7717,0.7691,0.7762,0.7708,0.7712,0.7786,0.78,0.7812,0.7778,0.7659,0,0,0,0,0,0.7531,0.7574,0.7567,0.758,0.7625,0.7687,0.7693,0.7718,0.7685,0.7722,0.7708,0.7683,0.7719,0.7695,0.7689,0.7735,0.7698,0.7703,0.7708,0.7808,0.7824,0.7837,0,0,0,0,0,0,0.7536,0.7549,0.7567,0.759,0.7602,0.7684,0.7656,0.7661,0.7685,0.7689,0.7682,0.7682,0.7675,0.7695,0.769,0.7735,0.766,0.77,0.7704,0.7708,0.7813,0.7826,0.7837,0,0,0,0,0,0.754,0.755,0.7623,0.7589,0.7599,0.7641,0.7656,0.7661,0.7671,0.7675,0.7676,0.7697,0.7674,0.7671,0.7692,0.7739,0.7663,0.7661,0.7703,0.7706,0.7709,0.782,0,0,0,0,0,0,0.7543,0.7533,0.7625,0.7628,0.7601,0.7638,0.7646,0.766,0.7655,0.7659,0.7688,0.769,0.7673,0.7671,0.7668,0.7744,0.7666,0.7664,0.7663,0.7705,0.7708,0.771,0,0,0,0,0,0,0.7529,0.7536,0.7626,0.7639,0.7644,0.7636,0.7643,0.7623,0.7653,0.7665,0.7669,0.7689,0.7677,0.7671,0.7669,0.7636,0.7667,0.7666,0.7665,0.7664,0.7707,0.7709,0,0,0,0,0,0,0.7532,0.7538,0.7637,0.7641,0.7645,0.768,0.7616,0.7656,0.7688,0.7663,0.7691,0.7693,0.7676,0.7674,0.7669,0.7637,0.7636,0.7667,0.7666,0.7665,0.7665,0,0,0,0,0,0,0,0.7535,0.7493,0.7615,0.7642,0.7646,0.7666,0.7665,0.7665,0.7688,0.769,0.7691,0.7692,0.7676,0.7675,0.7673,0.7638,0,0,0.7667,0.7667,0,0,0,0,0,0,0,0,0.7491,0.7493,0.7615,0.7617,0.7618,0.7666,0.7665,0.7665,0.7689,0.769,0.7691,0.7691,0.7676,0.7674,0.7673,0,0,0,0,0,0,0,0,0,0,0,0,0,0,0,0.7616,0.7617,0,0.7666,0.7665,0.7665,0.7689,0.769,0.769,0.7691,0.7675,0.7674,0.7673,0,0,0,0,0,0,0,0,0,0,0,0,0,0,0,0,0,0,0,0,0,0,0,0,0,0,0,0,0,0,0,0,0,0,0,0,0,0,0,0,0,0,0,0,0,0,0,0,0,0,0,0,0,0,0,0,0,0,0,0,0,0,0,0,0,0,0,0,0]}],[{"header":{"parameterUnit":"kt","parameterCategory":2,"dx":1,"dy":1,"la1":30.253999710083008,"la2":30.299108505249023,"lo1":-89.0895004272461,"lo2":-89.04439544677734,"nx":28,"ny":28,"refTime":"2022-09-18T21:00:00:Z","depth":"0","parameterNumber":3,"parameterNumberName":"V-component_of_CURRENTS"},"data":[-0.0093,-0.0032,0.0022,0.026,0.0405,0.0697,0.0888,0.1276,0.168,0.2377,0.2854,0.3151,0.2916,0.1549,0.0627,0.0388,0.0035,-0.0003,-0.0223,0.005,0.0068,0.0086,0.0034,-0.0104,-0.0105,-0.0551,-0.0557,-0.0561,-0.0088,-0.0036,0.0056,0.0219,0.037,0.0447,0.0708,0.0939,0.1306,0.1737,0.207,0.245,0.224,0.1888,0.1281,0.0833,0.0655,0.0534,0.041,0.0364,0.0827,0.0811,0.0835,0.0836,0.0836,0.0836,0.0836,0.0836,-0.0071,-0.0035,0.0053,0.0165,0.0289,0.0468,0.0616,0.0806,0.1042,0.1404,0.1469,0.1898,0.1835,0.1765,0.1482,0.1021,0.098,0.0875,0.0708,0.064,0.0547,0.1048,0.1125,0.1123,0.1122,0.1122,0.1121,0,-0.0046,-0.001,0.0056,0.0176,0.0272,0.0401,0.0529,0.0615,0.0772,0.0938,0.1188,0.1356,0.1411,0.1502,0.1379,0.1269,0.0851,0.1026,0.0787,0.0672,0.0578,0.0498,0.0973,0.1065,0.1064,0.1063,0.1062,0.1061,-0.002,0.0011,0.0142,0.0204,0.0262,0.0354,0.0439,0.0548,0.064,0.0818,0.0895,0.1011,0.1191,0.1207,0.112,0.1076,0.0841,0.0998,0.093,0.071,0.0531,0.0439,0.0377,0.1045,0.1047,0.1049,0.105,0,-0.0008,0.0073,0.0148,0.0269,0.0311,0.0359,0.0494,0.056,0.0635,0.0755,0.0786,0.0905,0.0987,0.097,0.0971,0.0895,0.0785,0.0859,0.0946,0.0947,0.0697,0.0542,0.0439,0.0366,0.0842,0.0842,0.0843,0,0.0065,0.0102,0.0232,0.0263,0.0333,0.0413,0.0482,0.0544,0.0636,0.0723,0.0752,0.0838,0.0825,0.0864,0.082,0.0823,0.0838,0.0755,0.0748,0.0814,0.0819,0.0615,0.0456,0.0749,0.0749,0.0748,0.0748,0,0.0106,0.0199,0.0254,0.0288,0.041,0.044,0.0494,0.0572,0.0623,0.0693,0.0743,0.0767,0.0801,0.0782,0.0778,0.0744,0.0801,0.0747,0.0729,0.0729,0.0779,0.0781,0.0668,0.0747,0.0747,0.0747,0.0747,0,0.0177,0.0237,0.0294,0.0403,0.0424,0.0454,0.0539,0.0573,0.0643,0.0669,0.07,0.0708,0.0734,0.0698,0.0713,0.0698,0.0675,0.0663,0.0664,0.0637,0.0601,0.0715,0.0813,0.0598,0.0662,0.0661,0.0661,0,0.0218,0.0283,0.0332,0.0386,0.0431,0.0492,0.0527,0.057,0.0602,0.064,0.0644,0.0653,0.0621,0.0623,0.0631,0.0617,0.0627,0.0599,0.0586,0.0586,0.0585,0.0663,0.0745,0.0797,0.0651,0.0652,0.0653,0,0.0241,0.0356,0.0355,0.038,0.0447,0.049,0.0527,0.0565,0.0584,0.0599,0.0616,0.0598,0.0599,0.0577,0.0552,0.056,0.061,0.0529,0.0528,0.055,0.0644,0.0648,0.0655,0.0594,0.0595,0.0596,0.0646,0,0.0265,0.0324,0.0366,0.0393,0.0437,0.0485,0.051,0.0544,0.0544,0.054,0.0554,0.0535,0.0514,0.0508,0.0476,0.0498,0.0486,0.0459,0.042,0.0473,0.0487,0.0493,0.0394,0.0392,0.0391,0.039,0,0,0.0232,0.0296,0.0355,0.0381,0.0403,0.0435,0.0453,0.0475,0.0486,0.0489,0.0465,0.0447,0.0418,0.0411,0.0414,0.0413,0.0414,0.0387,0.0445,0.0451,0.0457,0.0474,0.0481,0.0387,0.0387,0.0386,0.0386,0,0.0214,0.0304,0.0334,0.0367,0.0402,0.0415,0.0432,0.0457,0.0448,0.0467,0.0406,0.0404,0.0389,0.0353,0.0333,0.0395,0.0353,0.0381,0.0422,0.0433,0.0441,0.0449,0.0467,0.0475,0.0383,0.0383,0.0383,0,0.0159,0.0199,0.0233,0.0318,0.034,0.0365,0.034,0.039,0.0387,0.0336,0.0332,0.0314,0.0271,0.0279,0.0279,0.0256,0.0305,0.0282,0.0289,0.0282,0.029,0.03,0.0309,0.0196,0.0196,0.0195,0,0,0.0125,0.0186,0.0226,0.0312,0.0334,0.0338,0.0358,0.0342,0.0345,0.0339,0.0308,0.0273,0.0254,0.0244,0.023,0.0263,0.025,0.0262,0.0271,0.0278,0.0276,0.0286,0.0296,0.0194,0.0194,0.0194,0,0,0.0099,0.0152,0.0143,0.0253,0.0279,0.03,0.0334,0.0315,0.0314,0.0295,0.0237,0.0225,0.023,0.0208,0.0196,0.02,0.0159,0.0163,0.022,0.0231,0.0239,0.0235,0.0115,0,0,0,0,0,0.0062,0.0152,0.0144,0.0164,0.0256,0.0317,0.0323,0.0293,0.0256,0.0283,0.0244,0.0195,0.0173,0.0163,0.0164,0.0174,0.0177,0.018,0.0183,0.0264,0.0275,0.0285,0,0,0,0,0,0,0.007,0.0098,0.0141,0.0174,0.0193,0.0314,0.0239,0.0233,0.0251,0.024,0.0206,0.0194,0.0148,0.0159,0.0161,0.0171,0.0114,0.0178,0.0181,0.0183,0.0268,0.0277,0.0285,0,0,0,0,0,0.0076,0.0098,0.026,0.0171,0.0188,0.0172,0.0235,0.023,0.0241,0.0196,0.0184,0.0214,0.0152,0.0148,0.016,0.0171,0.0112,0.0113,0.018,0.0182,0.0184,0.0272,0,0,0,0,0,0,0.0081,0.0087,0.0262,0.0264,0.013,0.0163,0.017,0.0226,0.0193,0.0184,0.0199,0.0191,0.0156,0.0152,0.015,0.0172,0.0111,0.0112,0.0112,0.0182,0.0183,0.0185,0,0,0,0,0,0,0.0074,0.009,0.0263,0.0214,0.021,0.0154,0.0161,0.0185,0.0191,0.0197,0.019,0.0195,0.0136,0.0155,0.0153,0.0193,0.011,0.0111,0.0111,0.0112,0.0183,0.0184,0,0,0,0,0,0,0.0079,0.0093,0.0213,0.021,0.0206,0.0229,0.017,0.0251,0.0195,0.0198,0.0184,0.0178,0.0139,0.0137,0.0156,0.0197,0.0194,0.011,0.0111,0.0111,0.0111,0,0,0,0,0,0,0,0.0083,0.0012,0.0248,0.0207,0.0204,0.0284,0.0285,0.0285,0.0194,0.0189,0.0185,0.0181,0.0105,0.0106,0.0107,0.0201,0,0,0.011,0.011,0,0,0,0,0,0,0,0,0.0005,0.0011,0.0248,0.0249,0.0249,0.0284,0.0285,0.0285,0.0193,0.0189,0.0186,0.0182,0.0105,0.0106,0.0107,0,0,0,0,0,0,0,0,0,0,0,0,0,0,0,0.0248,0.0249,0,0.0284,0.0285,0.0285,0.0192,0.0189,0.0186,0.0184,0.0105,0.0106,0.0107,0,0,0,0,0,0,0,0,0,0,0,0,0,0,0,0,0,0,0,0,0,0,0,0,0,0,0,0,0,0,0,0,0,0,0,0,0,0,0,0,0,0,0,0,0,0,0,0,0,0,0,0,0,0,0,0,0,0,0,0,0,0,0,0,0,0,0,0,0]}]],[[{"header":{"parameterUnit":"kt","parameterCategory":2,"dx":1,"dy":1,"la1":30.253999710083008,"la2":30.299108505249023,"lo1":-89.0895004272461,"lo2":-89.04439544677734,"nx":28,"ny":28,"refTime":"2022-09-18T21:00:00:Z","depth":"2","parameterNumber":2,"parameterNumberName":"U-component_of_CURRENTS"},"data":[0.4743,0.4649,0.4637,0.452,0.4573,0.4391,0.4332,0.3924,0.3708,0.3233,0.306,0.3209,0.3362,0.2782,0.2784,0.267,0.3044,0.2572,0.3851,0.3908,0.3992,0.4295,0.4006,0,0,0,0,0,0.4844,0.4862,0.4882,0.4842,0.4797,0.4936,0.4888,0.4651,0.4414,0.4354,0.4264,0.3731,0.3558,0.3705,0.3573,0.3528,0.3541,0.3405,0.3377,0.3479,0.357,0.3309,0.2572,0.2567,0.2563,0.2559,0,0,0.5006,0.4996,0.5,0.5025,0.5079,0.5049,0.5004,0.4982,0.4948,0.4865,0.5115,0.4912,0.4882,0.4636,0.4525,0.4556,0.4962,0.4674,0.4711,0.4759,0.4558,0.4356,0.4152,0.4158,0.4163,0.4168,0.4173,0,0.5018,0.5072,0.5087,0.5113,0.5173,0.5206,0.5293,0.5315,0.5466,0.5515,0.5541,0.5553,0.5719,0.5447,0.5452,0.5381,0.547,0.5273,0.6115,0.5043,0.4846,0.4813,0.4837,0.4774,0.4785,0.4792,0.4797,0.4802,0.5009,0.5053,0.5126,0.5147,0.5183,0.5305,0.5352,0.55,0.5549,0.5774,0.5803,0.6046,0.6035,0.6131,0.6076,0.6058,0.6247,0.5511,0.538,0.5966,0.5934,0.5918,0.5902,0.4911,0.4897,0.4885,0.4876,0,0.4991,0.5003,0.5067,0.5137,0.5175,0.5275,0.5386,0.5467,0.5642,0.5765,0.5844,0.6027,0.6192,0.6277,0.6449,0.6302,0.6316,0.6256,0.5683,0.5593,0.5957,0.5931,0.6101,0.6092,0.6086,0.608,0.6075,0,0.4919,0.4974,0.5001,0.5027,0.5136,0.5187,0.5339,0.5434,0.5583,0.5677,0.5824,0.5908,0.6111,0.6202,0.6216,0.6204,0.6407,0.6119,0.6102,0.5679,0.5613,0.6202,0.6168,0.6478,0.6477,0.6476,0.6475,0,0.4876,0.488,0.4938,0.4946,0.4994,0.5089,0.5156,0.5302,0.5382,0.5599,0.5692,0.5879,0.5991,0.6112,0.6119,0.6105,0.6305,0.6291,0.6077,0.6055,0.564,0.5568,0.6473,0.6473,0.6473,0.6472,0.6472,0,0.4793,0.4797,0.4828,0.4908,0.4928,0.4963,0.5147,0.5189,0.5355,0.5443,0.5596,0.5647,0.5796,0.5742,0.5952,0.5889,0.5937,0.5957,0.5964,0.5657,0.5545,0.5241,0.5299,0.5963,0.5959,0.5956,0.5953,0,0.4772,0.4771,0.4774,0.4814,0.4838,0.489,0.4942,0.5034,0.5128,0.5249,0.5343,0.5444,0.5406,0.5479,0.5583,0.5627,0.5736,0.5601,0.5767,0.577,0.553,0.5684,0.5198,0.527,0.5906,0.5911,0.5914,0,0.4775,0.4772,0.4783,0.4836,0.4845,0.4828,0.489,0.4961,0.5084,0.5116,0.5263,0.528,0.5347,0.5346,0.5339,0.5436,0.5644,0.5421,0.5424,0.5495,0.5932,0.565,0.5654,0.5716,0.5723,0.5728,0.5877,0,0.4797,0.481,0.4787,0.4833,0.4814,0.4799,0.4815,0.4861,0.4955,0.4992,0.511,0.5072,0.5134,0.5135,0.5091,0.5261,0.5237,0.5223,0.5182,0.5313,0.5346,0.5377,0.4973,0.4969,0.4967,0.4964,0,0,0.4851,0.4848,0.4853,0.4838,0.4842,0.4859,0.4856,0.4856,0.483,0.49,0.4884,0.496,0.4918,0.4997,0.5014,0.4975,0.5036,0.4984,0.5212,0.524,0.5265,0.5308,0.534,0.4959,0.4958,0.4957,0.4956,0,0.4865,0.4881,0.4893,0.4858,0.485,0.4829,0.4849,0.4809,0.4841,0.4856,0.4868,0.4911,0.4865,0.4861,0.4859,0.4932,0.4948,0.4938,0.5043,0.5184,0.5215,0.5243,0.5291,0.5322,0.4949,0.495,0.495,0,0.4932,0.4932,0.4937,0.4873,0.4847,0.4812,0.4817,0.4788,0.4807,0.4764,0.4799,0.4794,0.4752,0.4757,0.4765,0.473,0.4871,0.4775,0.4788,0.479,0.4931,0.4966,0.4997,0.4612,0.4612,0.4611,0,0,0.4965,0.4983,0.4916,0.4867,0.4853,0.483,0.4806,0.4804,0.4767,0.4769,0.4748,0.4747,0.474,0.4736,0.4689,0.4697,0.4716,0.4741,0.4757,0.477,0.4781,0.4924,0.4956,0.461,0.461,0.461,0,0,0.4941,0.4931,0.497,0.4902,0.4841,0.4739,0.4717,0.4747,0.4734,0.4791,0.4741,0.4727,0.4749,0.4691,0.4676,0.4704,0.4629,0.463,0.4765,0.4783,0.4799,0.4824,0.4616,0,0,0,0,0,0.499,0.4939,0.4977,0.4963,0.4865,0.4742,0.4728,0.4699,0.479,0.4753,0.4766,0.474,0.4661,0.4645,0.4632,0.4708,0.4589,0.4593,0.4596,0.4769,0.4789,0.4806,0,0,0,0,0,0,0.4983,0.4963,0.4977,0.4878,0.4857,0.4744,0.4773,0.4764,0.4788,0.4789,0.4744,0.4736,0.4667,0.4648,0.4637,0.4712,0.462,0.459,0.4594,0.4596,0.4776,0.4793,0.4807,0,0,0,0,0,0.4978,0.4962,0.4819,0.4878,0.4859,0.4809,0.4775,0.4767,0.4802,0.4704,0.4698,0.479,0.4666,0.4657,0.4641,0.4719,0.4626,0.4623,0.4592,0.4595,0.4597,0.4784,0,0,0,0,0,0,0.4974,0.4951,0.4814,0.4807,0.4897,0.4814,0.4801,0.477,0.4716,0.4709,0.4739,0.474,0.4665,0.4659,0.4652,0.4727,0.4632,0.4628,0.4626,0.4594,0.4596,0.4598,0,0,0,0,0,0,0.4959,0.4945,0.481,0.4835,0.4831,0.4818,0.4806,0.4762,0.4717,0.4755,0.4753,0.4741,0.4688,0.4659,0.4654,0.4585,0.4636,0.4633,0.463,0.4629,0.4596,0.4597,0,0,0,0,0,0,0.4952,0.494,0.4837,0.4833,0.4829,0.4746,0.478,0.4691,0.4716,0.4758,0.472,0.4722,0.469,0.4683,0.4655,0.4589,0.4586,0.4636,0.4634,0.4632,0.4631,0,0,0,0,0,0,0,0.4947,0.5039,0.4858,0.4832,0.4828,0.474,0.4738,0.4736,0.4717,0.4718,0.472,0.4721,0.4657,0.4653,0.4649,0.4592,0,0,0.4637,0.4635,0,0,0,0,0,0,0,0,0.5043,0.504,0.4858,0.4856,0.4855,0.474,0.4738,0.4737,0.4717,0.4718,0.4719,0.4721,0.4656,0.4653,0.465,0,0,0,0,0,0,0,0,0,0,0,0,0,0,0,0.4858,0.4856,0,0.474,0.4738,0.4737,0.4717,0.4718,0.4719,0.472,0.4655,0.4653,0.465,0,0,0,0,0,0,0,0,0,0,0,0,0,0,0,0,0,0,0,0,0,0,0,0,0,0,0,0,0,0,0,0,0,0,0,0,0,0,0,0,0,0,0,0,0,0,0,0,0,0,0,0,0,0,0,0,0,0,0,0,0,0,0,0,0,0,0,0,0]}],[{"header":{"parameterUnit":"kt","parameterCategory":2,"dx":1,"dy":1,"la1":30.253999710083008,"la2":30.299108505249023,"lo1":-89.0895004272461,"lo2":-89.04439544677734,"nx":28,"ny":28,"refTime":"2022-09-18T21:00:00:Z","depth":"2","parameterNumber":3,"parameterNumberName":"V-component_of_CURRENTS"},"data":[0.1502,0.1591,0.1598,0.1778,0.1815,0.2037,0.2226,0.263,0.2793,0.3021,0.2939,0.2796,0.2157,0.1547,0.0991,0.0558,0.0492,0.0458,0.0622,0.075,0.0765,0.0406,0.0363,0,0,0,0,0,0.1422,0.1407,0.1466,0.1556,0.1692,0.1681,0.1988,0.2223,0.2687,0.2787,0.2976,0.2495,0.2158,0.159,0.0796,0.0361,0.0322,0.0204,0.0248,0.026,0.0271,0.0232,0.0152,0.0151,0.0149,0.0148,0,0,0.1258,0.1297,0.1297,0.1361,0.1444,0.1642,0.1807,0.2052,0.236,0.2588,0.2607,0.2645,0.2162,0.153,0.1123,0.0587,0.0615,0.0375,0.0381,0.0388,0.0354,0.0332,0.0307,0.0307,0.0307,0.0307,0.0308,0,0.1163,0.1112,0.1174,0.1214,0.1281,0.1428,0.1549,0.1679,0.1788,0.1967,0.2225,0.2296,0.1979,0.1718,0.1193,0.0965,0.0621,0.0545,0.064,0.0467,0.045,0.0407,0.0404,0.0452,0.0453,0.0453,0.0454,0.0454,0.0989,0.1037,0.1067,0.1112,0.1123,0.121,0.1303,0.1362,0.1487,0.1609,0.1722,0.1688,0.178,0.1545,0.1161,0.0863,0.0799,0.0583,0.0451,0.0487,0.0443,0.0437,0.0431,0.0465,0.0463,0.0462,0.0462,0,0.0901,0.0899,0.1001,0.1059,0.1078,0.1149,0.1241,0.1346,0.1347,0.1469,0.1461,0.1497,0.1452,0.125,0.1095,0.0879,0.0734,0.065,0.0647,0.0606,0.0446,0.0438,0.05,0.0498,0.0496,0.0495,0.0494,0,0.0781,0.0862,0.0867,0.092,0.1041,0.1069,0.118,0.1216,0.1268,0.1366,0.1258,0.1352,0.113,0.1083,0.0902,0.0743,0.0814,0.0525,0.0486,0.0476,0.0466,0.0474,0.0459,0.0594,0.0594,0.0593,0.0593,0,0.0639,0.0749,0.0839,0.087,0.0964,0.1004,0.1047,0.1092,0.1158,0.1159,0.1177,0.1139,0.1093,0.0985,0.0794,0.0731,0.0721,0.0626,0.0476,0.0469,0.0435,0.0421,0.0593,0.0593,0.0593,0.0593,0.0592,0,0.0539,0.0597,0.0714,0.082,0.085,0.0893,0.0994,0.1051,0.1071,0.1054,0.1028,0.0944,0.0912,0.0766,0.0697,0.0668,0.055,0.0473,0.0472,0.0369,0.0273,0.0307,0.0389,0.0419,0.0417,0.0416,0.0415,0,0.0415,0.0527,0.0525,0.0645,0.0715,0.0698,0.077,0.0802,0.0789,0.0823,0.0751,0.0737,0.0604,0.0556,0.0536,0.0436,0.0431,0.0396,0.0329,0.0329,0.0271,0.0354,0.0344,0.0373,0.04,0.0402,0.0403,0,0.0314,0.035,0.0354,0.0402,0.0429,0.0482,0.0539,0.0603,0.0647,0.0595,0.0659,0.0584,0.05,0.0477,0.0388,0.0374,0.0402,0.0262,0.026,0.0293,0.0415,0.0341,0.0344,0.0348,0.0351,0.0352,0.0391,0,0.0223,0.025,0.0278,0.0328,0.0354,0.04,0.0415,0.0421,0.0382,0.0381,0.0384,0.0304,0.0279,0.0247,0.0175,0.0217,0.0172,0.0124,0.0088,0.0153,0.0156,0.0166,0.0013,0.0011,0.0009,0.0008,0,0,0.0116,0.0174,0.0141,0.0193,0.0224,0.0169,0.0244,0.0242,0.0232,0.0245,0.0188,0.0133,0.0066,0.0108,0.0115,0.0062,0.0042,0.0044,0.0107,0.0118,0.0129,0.0136,0.0148,0.0004,0.0003,0.0003,0.0002,0,0.0108,0.0083,0.0123,0.014,0.0149,0.016,0.0161,0.017,0.0174,0.0162,0.012,0.0085,0.0009,0.0021,0.0006,0.0032,-0.0022,-0.0006,0.008,0.009,0.0104,0.0116,0.0126,0.0138,-0.0002,-0.0002,-0.0002,0,0.0052,0.0066,0.0073,0.0107,0.0106,0.0157,0.0112,0.0128,0.0172,0.0068,0.0077,0.0014,-0.0036,-0.004,-0.0059,-0.0084,-0.0076,-0.0111,-0.0103,-0.0081,-0.0073,-0.0058,-0.0044,-0.0218,-0.0218,-0.0218,0,0,0.0045,0.0059,0.0088,0.0112,0.0117,0.0108,0.0107,0.0114,0.0103,0.0089,0.0045,-0.0006,-0.0031,-0.0059,-0.0093,-0.0137,-0.0149,-0.0132,-0.0122,-0.0113,-0.0087,-0.0077,-0.0062,-0.0219,-0.0219,-0.0219,0,0,0.0058,0.0088,0.0067,0.0106,0.0122,0.0147,0.0145,0.0127,0.0095,0.0075,0.0024,0.001,-0.0017,-0.0072,-0.0073,-0.0093,-0.0141,-0.0143,-0.0041,-0.003,-0.002,0.0031,-0.01,0,0,0,0,0,0.0055,0.0083,0.0063,0.007,0.0098,0.0142,0.0141,0.0147,0.0108,0.0123,0.0074,0.0036,-0.0052,-0.0055,-0.0078,-0.0055,-0.0228,-0.0227,-0.0225,-0.0105,-0.0092,-0.0081,0,0,0,0,0,0,0.0058,0.007,0.0062,0.0091,0.0096,0.0141,0.0129,0.013,0.0111,0.0113,0.0047,0.0035,0.0016,-0.0048,-0.0068,-0.0043,-0.0093,-0.0228,-0.0226,-0.0225,-0.01,-0.009,-0.008,0,0,0,0,0,0.006,0.007,0.0125,0.0088,0.0093,0.0102,0.013,0.0131,0.0108,0.0071,0.0061,0.0115,0.0017,-0.0003,-0.006,-0.0032,-0.008,-0.0087,-0.0227,-0.0226,-0.0225,-0.0095,0,0,0,0,0,0,0.0062,0.0052,0.0124,0.0124,0.0102,0.01,0.0105,0.0132,0.0065,0.0059,0.0139,0.0141,0.0016,0.0001,-0.0014,-0.0022,-0.0069,-0.0077,-0.0081,-0.0226,-0.0225,-0.0224,0,0,0,0,0,0,0.0047,0.0052,0.0124,0.0141,0.0142,0.0099,0.0104,0.0025,0.0061,0.0134,0.0136,0.014,0.0014,0.0003,-0.0008,-0.013,-0.0061,-0.0068,-0.0073,-0.0076,-0.0225,-0.0224,0,0,0,0,0,0,0.0048,0.0052,0.0141,0.0142,0.0143,0.0133,0.0023,0.0034,0.0134,0.0134,0.0137,0.0139,0.0015,0.0004,-0.0004,-0.0121,-0.0128,-0.0061,-0.0066,-0.0069,-0.0072,0,0,0,0,0,0,0,0.0049,0.0034,0.0133,0.0142,0.0143,0.0119,0.0119,0.0118,0.0134,0.0136,0.0137,0.0138,-0.0021,-0.0029,-0.0037,-0.0113,0,0,-0.0061,-0.0064,0,0,0,0,0,0,0,0,0.0031,0.0033,0.0133,0.0133,0.0133,0.0119,0.0119,0.0118,0.0134,0.0136,0.0137,0.0138,-0.0024,-0.003,-0.0036,0,0,0,0,0,0,0,0,0,0,0,0,0,0,0,0.0133,0.0133,0,0.0119,0.0119,0.0118,0.0135,0.0136,0.0137,0.0137,-0.0025,-0.003,-0.0035,0,0,0,0,0,0,0,0,0,0,0,0,0,0,0,0,0,0,0,0,0,0,0,0,0,0,0,0,0,0,0,0,0,0,0,0,0,0,0,0,0,0,0,0,0,0,0,0,0,0,0,0,0,0,0,0,0,0,0,0,0,0,0,0,0,0,0,0,0]}]],[[{"header":{"parameterUnit":"kt","parameterCategory":2,"dx":1,"dy":1,"la1":30.253999710083008,"la2":30.299108505249023,"lo1":-89.0895004272461,"lo2":-89.04439544677734,"nx":28,"ny":28,"refTime":"2022-09-18T21:00:00:Z","depth":"4","parameterNumber":2,"parameterNumberName":"U-component_of_CURRENTS"},"data":[0.0172,0.0224,0.0233,0.0266,0.0314,0.041,0.0519,0.0721,0.081,0.1155,0.1285,0.1563,0.1798,0.1907,0.2066,0.2116,0.1989,0.2531,0.2526,0.2394,0.2398,0.2402,0.2365,0,0,0,0,0,0.0196,0.0203,0.0264,0.0367,0.0458,0.0531,0.0722,0.0857,0.119,0.13,0.1485,0.1696,0.1932,0.207,0.2106,0.2297,0.2363,0.2323,0.2192,0.2397,0.2401,0.2364,0,0,0,0,0,0,0.0215,0.0238,0.0348,0.045,0.0568,0.0628,0.0762,0.0951,0.1143,0.1582,0.1637,0.197,0.2227,0.2331,0.2426,0.2501,0.2386,0.2243,0.2256,0.2262,0.2209,0.209,0.2101,0,0,0,0,0,0.0249,0.031,0.04,0.0521,0.0641,0.0766,0.0964,0.1069,0.14,0.1656,0.1882,0.2054,0.2271,0.2399,0.255,0.2539,0.2606,0.2594,0.2591,0.2422,0.2348,0.2312,0.2301,0.242,0.242,0.2421,0.2421,0,0.0296,0.0345,0.0528,0.0587,0.0676,0.0862,0.0983,0.127,0.1413,0.1811,0.1895,0.2205,0.2374,0.2488,0.2624,0.2672,0.2635,0.2609,0.2431,0.2355,0.232,0.2307,0.2295,0.2425,0.2425,0.2424,0.2424,0,0.0309,0.0408,0.0514,0.0695,0.0772,0.0874,0.1138,0.1272,0.155,0.1803,0.1923,0.2203,0.2386,0.2524,0.266,0.2562,0.2601,0.2584,0.2594,0.2566,0.231,0.2296,0.2431,0.243,0.2429,0.2428,0.2427,0,0.0354,0.0436,0.0586,0.0643,0.078,0.0913,0.1114,0.1293,0.1549,0.1744,0.1974,0.2119,0.2301,0.2434,0.2435,0.2466,0.2552,0.2377,0.2356,0.2353,0.2338,0.2352,0.2335,0.2491,0.2491,0.2491,0.2491,0,0.034,0.0496,0.0586,0.0638,0.0814,0.0916,0.1033,0.1279,0.1435,0.176,0.1898,0.209,0.222,0.2278,0.2363,0.2304,0.2507,0.2404,0.2329,0.2319,0.2344,0.2328,0.249,0.249,0.249,0.249,0.249,0,0.0375,0.0457,0.0566,0.073,0.0774,0.0855,0.1085,0.1215,0.1486,0.1627,0.1807,0.1917,0.2099,0.2046,0.2199,0.2171,0.2187,0.2215,0.2216,0.2161,0.2071,0.2027,0.2162,0.216,0.2158,0.2156,0.2154,0,0.0338,0.0458,0.0536,0.0657,0.0728,0.0849,0.0972,0.1137,0.1287,0.1483,0.1606,0.179,0.1771,0.1873,0.1939,0.2041,0.2089,0.2023,0.2104,0.2106,0.202,0.2138,0.2091,0.2124,0.2128,0.2131,0.2133,0,0.0317,0.047,0.0496,0.0563,0.0693,0.0751,0.0892,0.106,0.1195,0.1326,0.1505,0.1647,0.1717,0.1783,0.1847,0.1925,0.2033,0.1935,0.1938,0.1922,0.2175,0.2106,0.2116,0.207,0.2074,0.2077,0.2112,0,0.0349,0.0439,0.0473,0.0593,0.0656,0.0723,0.0844,0.0953,0.1051,0.1159,0.1351,0.1423,0.1577,0.1622,0.1653,0.183,0.1811,0.1805,0.1774,0.1868,0.1864,0.1881,0.1672,0.1671,0.1671,0.167,0,0,0.0312,0.0407,0.0484,0.0552,0.0617,0.0697,0.0759,0.0847,0.0992,0.1091,0.1084,0.1332,0.1391,0.1557,0.1612,0.1624,0.1657,0.167,0.1815,0.1831,0.1846,0.1848,0.1864,0.1668,0.1668,0.1668,0.1668,0,0.0325,0.0408,0.0464,0.0528,0.0637,0.0692,0.0719,0.084,0.0923,0.1032,0.1109,0.1213,0.1349,0.1439,0.1492,0.1599,0.1632,0.1653,0.173,0.1804,0.1821,0.1836,0.1841,0.1857,0.1666,0.1666,0.1666,0,0.0322,0.0405,0.0443,0.0559,0.0623,0.0687,0.073,0.0807,0.0887,0.0928,0.1076,0.1144,0.1227,0.1348,0.1408,0.1392,0.1589,0.1538,0.1544,0.1571,0.1646,0.1666,0.1683,0.1457,0.1456,0.1456,0,0,0.0333,0.0402,0.0505,0.0568,0.0606,0.0698,0.0746,0.0801,0.088,0.0919,0.1013,0.111,0.1197,0.1255,0.1332,0.1429,0.1446,0.1511,0.1521,0.1529,0.156,0.1637,0.1656,0.1452,0.1452,0.1452,0,0,0.033,0.0458,0.05,0.0581,0.0651,0.0742,0.0786,0.0837,0.0916,0.094,0.1014,0.1038,0.1158,0.1193,0.1142,0.1357,0.1318,0.1329,0.1336,0.1349,0.1359,0.1377,0.1176,0,0,0,0,0,0.0396,0.0439,0.0477,0.0504,0.0648,0.0721,0.0739,0.0824,0.0863,0.0885,0.0964,0.0998,0.1192,0.1147,0.1167,0.1259,0.1412,0.1419,0.1426,0.1458,0.1471,0.1483,0,0,0,0,0,0,0.0408,0.0438,0.0476,0.0568,0.0603,0.0719,0.0763,0.0785,0.0862,0.0873,0.0981,0.1,0.1044,0.114,0.1157,0.1246,0.1171,0.1415,0.1421,0.1426,0.1463,0.1474,0.1483,0,0,0,0,0,0.0417,0.0442,0.0654,0.0568,0.0598,0.0718,0.0763,0.0782,0.0844,0.0935,0.0956,0.0912,0.1041,0.1063,0.1151,0.1238,0.1159,0.1165,0.1419,0.1424,0.1428,0.1468,0,0,0,0,0,0,0.0424,0.0445,0.0662,0.0674,0.0577,0.0714,0.0738,0.0779,0.0903,0.0925,0.0865,0.0871,0.1039,0.1056,0.1072,0.1234,0.115,0.1156,0.116,0.1422,0.1426,0.1429,0,0,0,0,0,0,0.0433,0.0454,0.0668,0.0674,0.0688,0.071,0.0731,0.0792,0.0903,0.0824,0.0835,0.0866,0.1028,0.1052,0.1064,0.1154,0.1143,0.1149,0.1153,0.1156,0.1425,0.1428,0,0,0,0,0,0,0.0443,0.0461,0.0671,0.0681,0.0693,0.083,0.0765,0.0911,0.0902,0.0817,0.0906,0.0907,0.1022,0.1036,0.1058,0.1142,0.1151,0.1143,0.1147,0.115,0.1152,0,0,0,0,0,0,0,0.0452,0.0311,0.0599,0.0687,0.0697,0.079,0.0792,0.0794,0.0902,0.0904,0.0905,0.0907,0.1108,0.1115,0.1122,0.1132,0,0,0.1142,0.1145,0,0,0,0,0,0,0,0,0.0305,0.031,0.0599,0.0602,0.0605,0.079,0.0792,0.0794,0.0902,0.0904,0.0905,0.0906,0.111,0.1115,0.1121,0,0,0,0,0,0,0,0,0,0,0,0,0,0,0,0.06,0.0602,0,0.079,0.0792,0.0794,0.0903,0.0904,0.0905,0.0906,0.1112,0.1116,0.112,0,0,0,0,0,0,0,0,0,0,0,0,0,0,0,0,0,0,0,0,0,0,0,0,0,0,0,0,0,0,0,0,0,0,0,0,0,0,0,0,0,0,0,0,0,0,0,0,0,0,0,0,0,0,0,0,0,0,0,0,0,0,0,0,0,0,0,0,0]}],[{"header":{"parameterUnit":"kt","parameterCategory":2,"dx":1,"dy":1,"la1":30.253999710083008,"la2":30.299108505249023,"lo1":-89.0895004272461,"lo2":-89.04439544677734,"nx":28,"ny":28,"refTime":"2022-09-18T21:00:00:Z","depth":"4","parameterNumber":3,"parameterNumberName":"V-component_of_CURRENTS"},"data":[0.1208,0.1308,0.1345,0.1549,0.1675,0.1889,0.1996,0.2038,0.198,0.1976,0.1742,0.1654,0.1223,0.1484,0.0806,0.0719,0.0533,0.0173,0.0165,-0.0098,-0.0096,-0.0094,0.0002,0,0,0,0,0,0.121,0.1266,0.1364,0.1511,0.1689,0.1812,0.1963,0.2015,0.2072,0.2013,0.197,0.1736,0.1302,0.1095,0.0809,0.0714,0.0305,0.0364,0.0146,-0.0097,-0.0095,-0.0001,0,0,0,0,0,0,0.1198,0.123,0.1333,0.1467,0.1641,0.1796,0.187,0.1933,0.1997,0.1963,0.1924,0.1655,0.1498,0.1047,0.0753,0.0466,0.0362,0.0232,0.0217,0.0216,0.0338,0.0454,0.0411,0,0,0,0,0,0.1181,0.1238,0.1287,0.1436,0.1566,0.1708,0.1834,0.1893,0.194,0.1961,0.1852,0.1622,0.1365,0.0978,0.0682,0.0364,0.0109,0.0026,0.0024,-0.0011,0.0044,0.0013,0.0025,-0.0085,-0.0085,-0.0085,-0.0085,0,0.1184,0.1221,0.1318,0.1386,0.1426,0.154,0.1641,0.1697,0.1753,0.1744,0.1756,0.1586,0.1442,0.0972,0.0657,0.0234,0.0172,0.0034,-0.0001,0.005,0.0015,0.0027,0.0038,-0.0083,-0.0083,-0.0083,-0.0083,0,0.1185,0.1209,0.125,0.1296,0.135,0.1399,0.1519,0.1581,0.1586,0.1646,0.1657,0.1489,0.1257,0.0967,0.0634,0.0425,0.0165,0.0086,0.0211,0.0172,0.0036,0.0047,-0.008,-0.008,-0.0081,-0.0081,-0.0082,0,0.1153,0.119,0.1224,0.1244,0.1323,0.1285,0.138,0.1377,0.1394,0.1447,0.1328,0.1306,0.1024,0.0844,0.0613,0.0349,0.0334,0.0157,0.0109,0.018,0.0189,0.0138,0.0143,0.0099,0.01,0.0101,0.0102,0,0.1129,0.1137,0.1174,0.1173,0.1164,0.1202,0.121,0.1197,0.1234,0.1219,0.1241,0.1073,0.1018,0.0807,0.0576,0.0563,0.0317,0.0262,0.0148,0.0147,0.0146,0.015,0.0103,0.0104,0.0104,0.0104,0.0105,0,0.1079,0.1079,0.1105,0.1115,0.1114,0.1127,0.1144,0.1138,0.111,0.1111,0.1047,0.0975,0.0857,0.079,0.0542,0.0595,0.0466,0.0357,0.0348,0.0332,0.0287,0.0262,0.0236,0.0237,0.0239,0.0241,0.0242,0,0.1063,0.1065,0.1034,0.1053,0.1046,0.1014,0.1015,0.0996,0.0976,0.0973,0.0871,0.0849,0.0751,0.0738,0.0636,0.0509,0.0433,0.0504,0.03,0.0294,0.0318,0.0294,0.0409,0.0264,0.0261,0.0259,0.0258,0,0.1037,0.1007,0.1016,0.1028,0.0971,0.0955,0.0944,0.0923,0.0948,0.0879,0.0885,0.0763,0.0729,0.0679,0.0604,0.0531,0.0461,0.0489,0.0483,0.0445,0.0304,0.0318,0.0306,0.0418,0.0416,0.0415,0.0273,0,0.1002,0.1004,0.0994,0.097,0.0946,0.0929,0.0887,0.0882,0.0872,0.0848,0.0799,0.0702,0.0641,0.0599,0.0558,0.0497,0.0477,0.0443,0.0422,0.042,0.0357,0.0346,0.0467,0.0466,0.0465,0.0464,0,0,0.1001,0.0985,0.0947,0.093,0.0921,0.0878,0.087,0.0844,0.0792,0.0794,0.0779,0.0665,0.0598,0.0529,0.053,0.0485,0.0443,0.0494,0.0425,0.0422,0.0418,0.0359,0.0349,0.0462,0.0462,0.0461,0.0461,0,0.0972,0.0957,0.0956,0.0929,0.0896,0.0862,0.086,0.081,0.0807,0.077,0.0732,0.0679,0.0594,0.0539,0.0498,0.0478,0.0419,0.0459,0.0499,0.0419,0.0417,0.0414,0.0357,0.0348,0.0459,0.0459,0.0459,0,0.096,0.0932,0.0935,0.0884,0.0862,0.0839,0.0818,0.0793,0.0787,0.0725,0.0713,0.0657,0.0578,0.0526,0.0499,0.0489,0.0397,0.0428,0.0431,0.0443,0.036,0.0357,0.0355,0.0383,0.0383,0.0383,0,0,0.0942,0.0936,0.0885,0.0875,0.0859,0.0824,0.0809,0.0794,0.0751,0.0741,0.07,0.0649,0.059,0.0559,0.0501,0.0442,0.0396,0.0422,0.0426,0.0429,0.0443,0.0361,0.0359,0.0384,0.0384,0.0384,0,0,0.0928,0.0887,0.0894,0.087,0.0838,0.0777,0.0775,0.0763,0.073,0.0741,0.0683,0.0667,0.0619,0.057,0.0585,0.0496,0.0476,0.0471,0.0536,0.0539,0.0543,0.0578,0.0547,0,0,0,0,0,0.0901,0.0889,0.0897,0.0889,0.0832,0.0776,0.0768,0.0756,0.077,0.0761,0.0728,0.0696,0.0571,0.0583,0.0562,0.0551,0.039,0.0389,0.0388,0.0457,0.0461,0.0465,0,0,0,0,0,0,0.0898,0.0887,0.0897,0.0837,0.0825,0.0776,0.0781,0.0776,0.0771,0.0773,0.0705,0.0693,0.0649,0.059,0.0571,0.0562,0.0553,0.039,0.0389,0.0388,0.0458,0.0462,0.0465,0,0,0,0,0,0.0895,0.0886,0.0803,0.0837,0.0826,0.0802,0.0783,0.0779,0.0776,0.0706,0.0696,0.0773,0.065,0.0632,0.0578,0.0572,0.0565,0.0558,0.0389,0.0388,0.0388,0.046,0,0,0,0,0,0,0.0893,0.0875,0.0801,0.0796,0.0855,0.0805,0.0798,0.0781,0.0709,0.07,0.0768,0.0769,0.0649,0.0635,0.0622,0.0579,0.0575,0.0568,0.0564,0.0389,0.0388,0.0387,0,0,0,0,0,0,0.088,0.0871,0.0798,0.0821,0.0819,0.0808,0.0802,0.0728,0.0706,0.0773,0.0774,0.0769,0.0659,0.0637,0.0627,0.0513,0.0582,0.0576,0.0572,0.0569,0.0388,0.0388,0,0,0,0,0,0,0.0876,0.0868,0.0822,0.082,0.0819,0.0768,0.0741,0.0677,0.0753,0.0775,0.0757,0.0759,0.066,0.065,0.063,0.0521,0.0515,0.0582,0.0578,0.0575,0.0573,0,0,0,0,0,0,0,0.0872,0.0927,0.0829,0.082,0.0819,0.0758,0.0757,0.0755,0.0753,0.0755,0.0756,0.0758,0.0619,0.0612,0.0605,0.0528,0,0,0.0583,0.058,0,0,0,0,0,0,0,0,0.0929,0.0927,0.0829,0.0828,0.0828,0.0758,0.0757,0.0756,0.0753,0.0755,0.0756,0.0757,0.0617,0.0611,0.0606,0,0,0,0,0,0,0,0,0,0,0,0,0,0,0,0.0829,0.0828,0,0.0758,0.0757,0.0756,0.0754,0.0755,0.0756,0.0757,0.0615,0.0611,0.0606,0,0,0,0,0,0,0,0,0,0,0,0,0,0,0,0,0,0,0,0,0,0,0,0,0,0,0,0,0,0,0,0,0,0,0,0,0,0,0,0,0,0,0,0,0,0,0,0,0,0,0,0,0,0,0,0,0,0,0,0,0,0,0,0,0,0,0,0,0]}]]]